This is the latest recevied weather packets stored in our database for station/object EA1CUE-WX. If no packets are shown the sender has not sent any weather packets the latest 10 day(s).
| Time | Temp. | Humidity | Pressure | Rain* | Wind** | Luminosity | Snow |
|---|---|---|---|---|---|---|---|
| 1787837930 | 15° C | 10% | 1009.7 hPa | 0 mm | - | - | - |
| 1787837630 | 15° C | 1% | 1009.7 hPa | 0 mm | - | - | - |
| 1787837330 | 15° C | 4% | 1009.7 hPa | 0 mm | - | - | - |
| 1787837030 | 15° C | 1% | 1009.4 hPa | 0 mm | - | - | - |
| 1787836730 | 15° C | 1% | 1009.4 hPa | 0 mm | - | - | - |
| 1787836430 | 15° C | 1% | 1009.4 hPa | 0 mm | - | - | - |
| 1787836130 | 14.44° C | 1% | 1009.4 hPa | 0 mm | - | - | - |
| 1787835830 | 14.44° C | 1% | 1009.4 hPa | 0 mm | - | - | - |
| 1787835530 | 14.44° C | 1% | 1009.4 hPa | 0 mm | - | - | - |
| 1787835230 | 14.44° C | 1% | 1009.3 hPa | 0 mm | - | - | - |
| 1787834930 | 15° C | 1% | 1009.4 hPa | 0 mm | - | - | - |
| 1787834630 | 13.89° C | 1% | 1009.2 hPa | 0 mm | - | - | - |
| 1787834330 | 13.89° C | 1% | 1009 hPa | 0 mm | - | - | - |
| 1787834030 | 13.33° C | 1% | 1008.9 hPa | 0 mm | - | - | - |
| 1787833730 | 12.78° C | 1% | 1009.1 hPa | 0 mm | - | - | - |
| 1787833430 | 12.22° C | 1% | 1009.1 hPa | 0 mm | - | - | - |
| 1787833130 | 11.67° C | 1% | 1009.1 hPa | 0 mm | - | - | - |
| 1787832830 | 11.11° C | 1% | 1009 hPa | 0.76 mm | - | - | - |
| 1787832530 | 11.11° C | 1% | 1009 hPa | 1.52 mm | - | - | - |
| 1787832230 | 10.56° C | 1% | 1009 hPa | 2.79 mm | - | - | - |
| 1787831930 | 10.56° C | 1% | 1009.3 hPa | 3.3 mm | - | - | - |
| 1787831630 | 10° C | 1% | 1009.2 hPa | 3.56 mm | - | - | - |
| 1787831330 | 10° C | 1% | 1009.2 hPa | 3.56 mm | - | - | - |
| 1787831030 | 10° C | 1% | 1009.1 hPa | 3.56 mm | - | - | - |
| 1787830730 | 10° C | 1% | 1009 hPa | 3.56 mm | - | - | - |
* Rain latest hour (hover to see other rain measurements)
** Current wind speed in m/s (hover to see current wind gust speed)